EW6655 Weather Reports


time (UTC)temp
C
wind
direction
speed
KPH
gust
KPH
rain 1hr
cm
rain 24hr
cm
rain mn
cm
humidity
%
barometer
mb
20260903120122 18 289 8.0 30.6 0.00 0.00 0.00 82 1018.8
20260903114604 18 238 9.7 27.4 0.00 0.00 0.00 81 1018.9
20260903113055 18 285 6.4 32.2 0.00 0.00 0.00 80 1018.8
20260903111554 18 232 4.8 37.0 0.00 0.00 0.00 79 1018.8
20260903110100 18 254 9.7 29.0 0.00 0.00 0.00 77 1018.7
20260903104553 18 319 8.0 25.7 0.00 0.00 0.00 78 1018.3
20260903103047 17 244 9.7 24.1 0.00 0.00 0.00 78 1018.4
20260903101549 17 263 8.0 20.9 0.00 0.00 0.00 77 1018.5
20260903100048 17 215 11.3 32.2 0.00 0.00 0.00 79 1018.6
20260903094546 17 218 11.3 25.7 0.00 0.00 0.00 81 1018.6
20260903093044 17 238 9.7 33.8 0.00 0.00 0.00 80 1018.6
20260903091540 17 213 9.7 29.0 0.00 0.00 0.00 81 1018.8
20260903090042 17 234 9.7 29.0 0.00 0.00 0.00 80 1018.6
20260903084540 17 30 12.9 38.6 0.00 0.00 0.00 79 1018.6
20260903083043 16 259 9.7 27.4 0.00 0.00 0.00 79 1018.4
20260903081534 16 258 12.9 25.7 0.00 0.00 0.00 79 1018.6
20260903080031 16 244 12.9 29.0 0.00 0.00 0.00 78 1018.6
20260903074531 15 255 8.0 29.0 0.00 0.00 0.00 78 1018.6
20260903073028 15 228 9.7 22.5 0.00 0.00 0.00 77 1018.4
20260903071529 15 261 6.4 22.5 0.00 0.00 0.00 76 1018.5
20260903070023 15 227 6.4 24.1 0.00 0.00 0.00 76 1018.5
20260903064520 15 252 8.0 22.5 0.00 0.00 0.00 76 1018.6
20260903063020 15 262 6.4 20.9 0.00 0.00 0.00 76 1018.6
20260903061532 14 258 8.0 19.3 0.00 0.00 0.00 76 1018.7
20260903060014 14 272 9.7 22.5 0.00 0.00 0.00 76 1018.5
20260903054514 14 236 9.7 22.5 0.00 0.00 0.00 76 1018.5
20260903053010 14 259 8.0 20.9 0.00 0.00 0.00 76 1018.5
20260903051509 14 258 8.0 25.7 0.00 0.00 0.00 76 1018.4
20260903050008 14 247 8.0 25.7 0.00 0.00 0.00 76 1018.6
20260903044505 13 231 9.7 20.9 0.00 0.00 0.00 78 1018.3
20260903043002 13 246 9.7 16.1 0.00 0.00 0.00 79 1018.3
20260903041501 13 233 6.4 12.9 0.00 0.00 0.00 80 1018.4
20260903040059 13 213 6.4 20.9 0.00 0.00 0.00 81 1018.6
20260903034558 13 223 4.8 14.5 0.00 0.00 0.00 81 1018.9
20260903033055 13 244 4.8 19.3 0.00 0.00 0.00 80 1019.3
20260903031556 13 283 8.0 17.7 0.00 0.00 0.00 80 1019.2
20260903030054 13 266 6.4 16.1 0.00 0.00 0.00 81 1019.1
20260903024554 13 251 4.8 16.1 0.00 0.00 0.00 81 1019.1
20260903023052 13 259 4.8 16.1 0.00 0.00 0.00 81 1019.2
20260903021551 13 242 4.8 14.5 0.00 0.00 0.00 81 1019.5
20260903020053 13 259 3.2 11.3 0.00 0.00 0.00 81 1019.5
20260903014606 13 238 3.2 14.5 0.00 0.00 0.00 80 1019.7
20260903013059 13 238 4.8 14.5 0.00 0.00 0.00 81 1019.9
20260903011611 13 278 4.8 12.9 0.00 0.00 0.00 81 1019.9
20260903010058 12 184 3.2 12.9 0.00 0.00 0.00 82 1019.9
20260903004541 12 246 4.8 11.3 0.00 0.00 0.00 83 1019.9
20260903003044 12 256 3.2 8.0 0.00 0.00 0.00 83 1020.1
20260903001549 12 238 3.2 11.3 0.00 0.00 0.00 83 1020.2
20260903000036 12 220 1.6 8.0 0.00 0.00 0.00 82 1020.3
20260902234535 12 252 4.8 12.9 0.00 0.00 0.00 82 1020.5
20260902233032 12 252 3.2 11.3 0.00 0.00 0.00 83 1020.6
20260902231543 12 249 3.2 9.7 0.00 0.00 0.00 83 1020.7
20260902230030 12 238 3.2 9.7 0.00 0.00 0.00 82 1020.6
20260902224528 12 264 1.6 11.3 0.00 0.00 0.00 81 1020.7
20260902223035 12 254 1.6 11.3 0.00 0.00 0.00 81 1020.9
20260902221529 13 230 1.6 9.7 0.00 0.00 0.00 81 1021.0
20260902220031 13 231 3.2 8.0 0.00 0.00 0.00 80 1021.0
20260902214524 13 254 3.2 8.0 0.00 0.00 0.00 80 1021.0
20260902213021 13 254 3.2 6.4 0.00 0.00 0.00 80 1021.0
20260902211521 13 210 3.2 6.4 0.00 0.00 0.00 80 1021.0
20260902210021 13 237 1.6 6.4 0.00 0.00 0.00 79 1020.8
20260902204520 13 237 1.6 6.4 0.00 0.00 0.00 79 1020.9
20260902203019 13 288 0.0 4.8 0.00 0.00 0.00 78 1021.1
20260902201518 13 288 1.6 4.8 0.00 0.00 0.00 78 1021.1
20260902200120 13 288 0.0 0.0 0.00 0.00 0.00 77 1021.0
20260902194534 14 288 0.0 3.2 0.00 0.00 0.00 75 1021.1
20260902193017 15 288 0.0 4.8 0.00 0.00 0.00 74 1021.1
20260902191517 15 288 0.0 3.2 0.00 0.00 0.00 73 1021.1
20260902190017 15 284 1.6 9.7 0.00 0.00 0.00 71 1020.9
20260902184520 15 229 3.2 6.4 0.00 0.00 0.00 71 1020.9
20260902183016 15 257 1.6 4.8 0.00 0.00 0.00 70 1020.8
20260902181515 16 261 1.6 6.4 0.00 0.00 0.00 69 1020.8
20260902180016 16 246 1.6 8.0 0.00 0.00 0.00 67 1020.7
20260902174514 16 243 0.0 8.0 0.00 0.00 0.00 66 1020.6
20260902173019 17 248 3.2 8.0 0.00 0.00 0.00 65 1020.4
20260902171513 17 263 1.6 12.9 0.00 0.00 0.00 63 1020.5
20260902170017 17 241 1.6 9.7 0.00 0.00 0.00 63 1020.5
20260902164512 18 251 1.6 11.3 0.00 0.00 0.00 64 1020.5
20260902163011 18 311 1.6 8.0 0.00 0.00 0.00 63 1020.5
20260902161511 17 13 1.6 6.4 0.00 0.00 0.00 66 1020.6
20260902160012 17 271 1.6 11.3 0.00 0.00 0.00 64 1020.6
20260902154510 17 294 0.0 6.4 0.00 0.00 0.00 65 1020.6
20260902153010 17 355 0.0 6.4 0.00 0.00 0.00 64 1020.7
20260902151511 17 292 0.0 8.0 0.00 0.00 0.00 64 1020.7
20260902150009 18 255 3.2 9.7 0.00 0.00 0.00 61 1020.8
20260902144506 18 298 1.6 9.7 0.00 0.00 0.00 62 1020.8
20260902143006 18 327 1.6 12.9 0.00 0.00 0.00 61 1020.9
20260902141505 18 318 3.2 8.0 0.00 0.00 0.00 61 1020.9
20260902140011 18 343 1.6 6.4 0.00 0.00 0.00 63 1020.9
20260902134504 18 355 1.6 11.3 0.00 0.00 0.00 62 1020.8
20260902133002 17 259 1.6 14.5 0.00 0.00 0.00 62 1020.9
20260902131500 17 235 3.2 8.0 0.00 0.00 0.00 65 1020.9
20260902124601 17 212 6.4 11.3 0.00 0.00 0.00 60 1021.1
20260902123103 17 309 3.2 8.0 0.00 0.00 0.00 62 1020.9
20260902121600 17 233 3.2 9.7 0.00 0.00 0.00 64 1021.1